Time,TemperatureF,DewpointF,PressureIn,WindDirection,WindDirectionDegrees,WindSpeedMPH,WindSpeedGustMPH,Humidity,HourlyPrecipIn,Conditions,Clouds,dailyrainin,SoftwareType,DateUTC
2013-02-17 00:02:00,12.0,3.0,-100.00,West,260,5.0,7.0,66,0.00,,,-99.99,,2013-02-17 05:02:00,
2013-02-17 00:12:00,12.0,3.0,-100.00,West,265,4.0,7.0,68,0.00,,,-99.99,,2013-02-17 05:12:00,
2013-02-17 00:22:00,12.0,4.0,-100.00,West,270,4.0,9.0,69,0.00,,,-99.99,,2013-02-17 05:22:00,
2013-02-17 00:33:00,12.0,4.0,-100.00,WSW,250,4.0,9.0,69,0.00,,,-99.99,,2013-02-17 05:33:00,
2013-02-17 00:42:00,12.0,4.0,-100.00,WSW,245,4.0,10.0,70,0.00,,,-99.99,,2013-02-17 05:42:00,
2013-02-17 00:52:00,12.0,4.0,-100.00,WSW,245,4.0,10.0,70,0.00,,,-99.99,,2013-02-17 05:52:00,
2013-02-17 01:02:00,12.0,5.0,-100.00,West,275,7.0,11.0,72,0.00,,,-99.99,,2013-02-17 06:02:00,
2013-02-17 01:11:00,12.0,5.0,-100.00,West,260,7.0,11.0,73,0.00,,,-99.99,,2013-02-17 06:11:00,
2013-02-17 01:21:00,12.0,6.0,-100.00,West,265,5.0,10.0,73,0.00,,,-99.99,,2013-02-17 06:21:00,
2013-02-17 01:32:00,12.0,6.0,-100.00,West,260,5.0,12.0,74,0.00,,,-99.99,,2013-02-17 06:32:00,
2013-02-17 01:41:00,12.0,6.0,-100.00,WSW,250,4.0,9.0,75,0.00,,,-99.99,,2013-02-17 06:41:00,
2013-02-17 01:51:00,12.0,6.0,-100.00,WSW,255,4.0,7.0,76,0.00,,,-99.99,,2013-02-17 06:51:00,
2013-02-17 02:01:00,12.0,6.0,-100.00,West,260,6.0,9.0,76,0.00,,,-99.99,,2013-02-17 07:01:00,
2013-02-17 02:11:00,12.0,6.0,-100.00,WSW,250,6.0,9.0,77,0.00,,,-99.99,,2013-02-17 07:11:00,
2013-02-17 02:21:00,13.0,7.0,-100.00,WSW,255,7.0,11.0,76,0.00,,,-99.99,,2013-02-17 07:21:00,
2013-02-17 02:32:00,13.0,7.0,-100.00,West,260,4.0,7.0,77,0.00,,,-99.99,,2013-02-17 07:32:00,
2013-02-17 02:41:00,12.0,7.0,-100.00,WSW,240,7.0,11.0,78,0.00,,,-99.99,,2013-02-17 07:41:00,
2013-02-17 02:51:00,12.0,7.0,-100.00,WSW,255,6.0,9.0,78,0.00,,,-99.99,,2013-02-17 07:51:00,
2013-02-17 03:01:00,13.0,7.0,-100.00,WSW,255,7.0,9.0,78,0.00,,,-99.99,,2013-02-17 08:01:00,
2013-02-17 03:11:00,13.0,7.0,-100.00,WSW,255,6.0,9.0,78,0.00,,,-99.99,,2013-02-17 08:11:00,
2013-02-17 03:21:00,13.0,7.0,-100.00,WSW,255,9.0,12.0,77,0.00,,,-99.99,,2013-02-17 08:21:00,
2013-02-17 03:32:00,13.0,7.0,-100.00,WSW,255,9.0,12.0,77,0.00,,,-99.99,,2013-02-17 08:32:00,
2013-02-17 03:42:00,13.0,7.0,-100.00,WSW,245,6.0,9.0,77,0.00,,,-99.99,,2013-02-17 08:42:00,
2013-02-17 03:52:00,13.0,7.0,-100.00,WSW,255,6.0,9.0,78,0.00,,,-99.99,,2013-02-17 08:52:00,
2013-02-17 04:02:00,13.0,7.0,-100.00,West,265,6.0,9.0,78,0.00,,,-99.99,,2013-02-17 09:02:00,
2013-02-17 04:11:00,13.0,7.0,-100.00,WSW,245,7.0,9.0,78,0.00,,,-99.99,,2013-02-17 09:11:00,
2013-02-17 04:21:00,13.0,7.0,-100.00,WSW,240,4.0,9.0,79,0.00,,,-99.99,,2013-02-17 09:21:00,
2013-02-17 04:32:00,12.0,7.0,-100.00,SW,235,4.0,8.0,79,0.00,,,-99.99,,2013-02-17 09:32:00,
2013-02-17 04:42:00,12.0,7.0,-100.00,WSW,240,5.0,9.0,80,0.00,,,-99.99,,2013-02-17 09:42:00,
2013-02-17 04:51:00,12.0,8.0,-100.00,WSW,240,4.0,7.0,80,0.00,,,-99.99,,2013-02-17 09:51:00,
2013-02-17 05:01:00,12.0,8.0,-100.00,West,260,4.0,9.0,81,0.00,,,-99.99,,2013-02-17 10:01:00,
2013-02-17 05:11:00,12.0,8.0,-100.00,West,275,7.0,10.0,81,0.00,,,-99.99,,2013-02-17 10:11:00,
2013-02-17 05:21:00,12.0,7.0,-100.00,West,270,7.0,9.0,81,0.00,,,-99.99,,2013-02-17 10:21:00,
2013-02-17 05:32:00,11.0,7.0,-100.00,West,265,7.0,9.0,81,0.00,,,-99.99,,2013-02-17 10:32:00,
2013-02-17 05:41:00,11.0,7.0,-100.00,West,260,5.0,7.0,82,0.00,,,-99.99,,2013-02-17 10:41:00,
2013-02-17 05:52:00,11.0,7.0,-100.00,West,260,4.0,7.0,83,0.00,,,-99.99,,2013-02-17 10:52:00,
2013-02-17 06:01:00,11.0,7.0,-100.00,West,265,5.0,9.0,83,0.00,,,-99.99,,2013-02-17 11:01:00,
2013-02-17 06:11:00,11.0,7.0,-100.00,West,265,6.0,7.0,83,0.00,,,-99.99,,2013-02-17 11:11:00,
2013-02-17 06:21:00,11.0,7.0,-100.00,West,270,4.0,9.0,83,0.00,,,-99.99,,2013-02-17 11:21:00,
2013-02-17 06:32:00,11.0,7.0,-100.00,WSW,250,4.0,10.0,84,0.00,,,-99.99,,2013-02-17 11:32:00,
2013-02-17 06:42:00,11.0,8.0,-100.00,West,270,6.0,9.0,84,0.00,,,-99.99,,2013-02-17 11:42:00,
2013-02-17 06:52:00,11.0,8.0,-100.00,WSW,255,5.0,9.0,85,0.00,,,-99.99,,2013-02-17 11:52:00,
2013-02-17 07:03:00,11.0,8.0,-100.00,West,260,6.0,10.0,85,0.00,,,-99.99,,2013-02-17 12:03:00,
2013-02-17 07:11:00,11.0,8.0,-100.00,West,275,7.0,11.0,85,0.00,,,-99.99,,2013-02-17 12:11:00,
2013-02-17 07:22:00,11.0,8.0,-100.00,West,270,9.0,12.0,85,0.00,,,-99.99,,2013-02-17 12:22:00,
2013-02-17 07:32:00,11.0,8.0,-100.00,West,260,8.0,11.0,85,0.00,,,-99.99,,2013-02-17 12:32:00,
2013-02-17 07:42:00,12.0,9.0,-100.00,West,275,7.0,12.0,86,0.00,,,-99.99,,2013-02-17 12:42:00,
2013-02-17 07:52:00,12.0,9.0,-100.00,NW,305,8.0,15.0,86,0.00,,,-99.99,,2013-02-17 12:52:00,
2013-02-17 08:02:00,12.0,9.0,-100.00,WNW,285,9.0,11.0,86,0.00,,,-99.99,,2013-02-17 13:02:00,
2013-02-17 08:12:00,12.0,9.0,-100.00,West,275,8.0,13.0,86,0.00,,,-99.99,,2013-02-17 13:12:00,
2013-02-17 08:22:00,12.0,9.0,-100.00,West,275,8.0,12.0,85,0.55,,,-99.99,,2013-02-17 13:22:00,
2013-02-17 08:32:00,13.0,9.0,-100.00,West,260,6.0,11.0,85,1.10,,,-99.99,,2013-02-17 13:32:00,
2013-02-17 08:41:00,13.0,9.0,-100.00,WSW,255,7.0,15.0,84,0.55,,,-99.99,,2013-02-17 13:41:00,
2013-02-17 08:51:00,13.0,9.0,-100.00,West,260,8.0,12.0,83,0.55,,,-99.99,,2013-02-17 13:51:00,
2013-02-17 09:01:00,13.0,9.0,-100.00,WNW,290,7.0,12.0,83,0.55,,,-99.99,,2013-02-17 14:01:00,
2013-02-17 09:11:00,13.0,9.0,-100.00,West,270,6.0,14.0,82,0.55,,,-99.99,,2013-02-17 14:11:00,
2013-02-17 09:21:00,13.0,9.0,-100.00,West,270,9.0,16.0,82,1.10,,,-99.99,,2013-02-17 14:21:00,
2013-02-17 09:32:00,13.0,9.0,-100.00,West,275,7.0,11.0,83,2.24,,,-99.99,,2013-02-17 14:32:00,
2013-02-17 09:42:00,13.0,9.0,-100.00,WNW,300,8.0,12.0,83,1.10,,,-99.99,,2013-02-17 14:42:00,
2013-02-17 09:52:00,13.0,9.0,-100.00,West,270,9.0,11.0,81,0.55,,,-99.99,,2013-02-17 14:52:00,
2013-02-17 10:02:00,13.0,9.0,-100.00,WNW,290,8.0,11.0,81,1.69,,,-99.99,,2013-02-17 15:02:00,
2013-02-17 10:11:00,13.0,9.0,-100.00,West,275,6.0,12.0,80,0.55,,,-99.99,,2013-02-17 15:11:00,
2013-02-17 10:21:00,13.0,8.0,-100.00,NW,310,6.0,11.0,80,0.00,,,-99.99,,2013-02-17 15:21:00,
2013-02-17 10:32:00,14.0,9.0,-100.00,WNW,295,7.0,10.0,80,0.00,,,-99.99,,2013-02-17 15:32:00,
2013-02-17 10:42:00,14.0,8.0,-100.00,West,270,7.0,14.0,79,0.00,,,-99.99,,2013-02-17 15:42:00,
2013-02-17 10:52:00,14.0,9.0,-100.00,West,265,7.0,11.0,79,0.00,,,-99.99,,2013-02-17 15:52:00,
2013-02-17 11:01:00,15.0,9.0,-100.00,West,275,6.0,12.0,78,0.55,,,-99.99,,2013-02-17 16:01:00,
2013-02-17 11:12:00,14.0,9.0,-100.00,WNW,290,9.0,12.0,78,0.00,,,-99.99,,2013-02-17 16:12:00,
2013-02-17 11:21:00,16.0,10.0,-100.00,WSW,240,4.0,9.0,77,0.55,,,-99.99,,2013-02-17 16:21:00,
2013-02-17 11:32:00,16.0,10.0,-100.00,West,270,4.0,11.0,75,0.55,,,-99.99,,2013-02-17 16:32:00,
2013-02-17 11:42:00,18.0,11.0,-100.00,SW,230,6.0,11.0,74,0.00,,,-99.99,,2013-02-17 16:42:00,
2013-02-17 11:51:00,17.0,9.0,-100.00,WSW,255,7.0,12.0,71,0.00,,,-99.99,,2013-02-17 16:51:00,
2013-02-17 12:02:00,17.0,10.0,-100.00,WNW,285,6.0,9.0,74,0.00,,,-99.99,,2013-02-17 17:02:00,
2013-02-17 12:11:00,17.0,10.0,-100.00,WNW,290,6.0,11.0,73,0.00,,,-99.99,,2013-02-17 17:11:00,
2013-02-17 12:21:00,17.0,11.0,-100.00,WNW,300,4.0,9.0,76,0.00,,,-99.99,,2013-02-17 17:21:00,
2013-02-17 12:32:00,18.0,11.0,-100.00,West,280,4.0,10.0,71,0.00,,,-99.99,,2013-02-17 17:32:00,
2013-02-17 12:42:00,19.0,10.0,-100.00,WSW,245,7.0,10.0,66,0.00,,,-99.99,,2013-02-17 17:42:00,
2013-02-17 12:52:00,19.0,9.0,-100.00,West,265,6.0,10.0,64,0.00,,,-99.99,,2013-02-17 17:52:00,
2013-02-17 13:02:00,19.0,8.0,-100.00,West,275,8.0,12.0,63,0.00,,,-99.99,,2013-02-17 18:02:00,
2013-02-17 13:11:00,19.0,8.0,-100.00,West,260,4.0,11.0,63,0.00,,,-99.99,,2013-02-17 18:11:00,
2013-02-17 13:22:00,19.0,9.0,-100.00,WSW,255,8.0,11.0,64,0.00,,,-99.99,,2013-02-17 18:22:00,
2013-02-17 13:33:00,20.0,10.0,-100.00,WNW,300,6.0,9.0,63,0.00,,,-99.99,,2013-02-17 18:33:00,
2013-02-17 13:42:00,19.0,8.0,-100.00,West,265,6.0,12.0,61,0.00,,,-99.99,,2013-02-17 18:42:00,
2013-02-17 13:52:00,19.0,7.0,-100.00,WNW,290,6.0,10.0,59,0.00,,,-99.99,,2013-02-17 18:52:00,
2013-02-17 14:01:00,19.0,6.0,-100.00,West,280,9.0,12.0,56,0.00,,,-99.99,,2013-02-17 19:01:00,
2013-02-17 14:11:00,19.0,7.0,-100.00,West,270,7.0,12.0,58,0.00,,,-99.99,,2013-02-17 19:11:00,
2013-02-17 14:21:00,20.0,7.0,-100.00,West,270,6.0,12.0,57,0.00,,,-99.99,,2013-02-17 19:21:00,
2013-02-17 14:32:00,20.0,7.0,-100.00,West,270,7.0,11.0,57,0.00,,,-99.99,,2013-02-17 19:32:00,
2013-02-17 14:42:00,19.0,8.0,-100.00,West,270,6.0,12.0,60,0.00,,,-99.99,,2013-02-17 19:42:00,
2013-02-17 14:51:00,20.0,8.0,-100.00,WNW,285,4.0,11.0,60,0.00,,,-99.99,,2013-02-17 19:51:00,
2013-02-17 15:02:00,20.0,8.0,-100.00,WNW,295,6.0,12.0,59,0.00,,,-99.99,,2013-02-17 20:02:00,
2013-02-17 15:11:00,20.0,8.0,-100.00,West,265,3.0,7.0,58,0.00,,,-99.99,,2013-02-17 20:11:00,
2013-02-17 15:21:00,20.0,7.0,-100.00,West,275,5.0,11.0,55,0.00,,,-99.99,,2013-02-17 20:21:00,
2013-02-17 15:32:00,21.0,7.0,-100.00,SW,220,7.0,11.0,54,0.00,,,-99.99,,2013-02-17 20:32:00,
2013-02-17 15:42:00,22.0,8.0,-100.00,SW,230,7.0,12.0,54,0.00,,,-99.99,,2013-02-17 20:42:00,
2013-02-17 15:52:00,22.0,7.0,-100.00,SW,235,7.0,11.0,52,0.00,,,-99.99,,2013-02-17 20:52:00,
2013-02-17 16:02:00,22.0,7.0,-100.00,SW,235,7.0,11.0,52,0.00,,,-99.99,,2013-02-17 21:02:00,
2013-02-17 16:11:00,22.0,7.0,-100.00,SW,235,7.0,11.0,52,0.00,,,-99.99,,2013-02-17 21:11:00,
2013-02-17 16:21:00,21.0,8.0,-100.00,SW,220,7.0,15.0,57,0.00,,,-99.99,,2013-02-17 21:21:00,
2013-02-17 16:32:00,22.0,9.0,-100.00,West,275,6.0,10.0,56,0.00,,,-99.99,,2013-02-17 21:32:00,
2013-02-17 16:42:00,21.0,8.0,-100.00,WSW,250,5.0,9.0,55,0.00,,,-99.99,,2013-02-17 21:42:00,
2013-02-17 16:53:00,21.0,8.0,-100.00,WNW,285,6.0,11.0,55,0.00,,,-99.99,,2013-02-17 21:53:00,
2013-02-17 17:01:00,22.0,7.0,-100.00,WSW,255,7.0,11.0,51,0.00,,,-99.99,,2013-02-17 22:01:00,
2013-02-17 17:12:00,22.0,8.0,-100.00,WSW,255,6.0,10.0,52,0.00,,,-99.99,,2013-02-17 22:12:00,
2013-02-17 17:22:00,22.0,8.0,-100.00,West,260,4.0,9.0,54,0.00,,,-99.99,,2013-02-17 22:22:00,
2013-02-17 17:32:00,22.0,7.0,-100.00,SW,235,4.0,9.0,52,0.00,,,-99.99,,2013-02-17 22:32:00,
2013-02-17 17:42:00,22.0,8.0,-100.00,WSW,250,5.0,9.0,54,0.00,,,-99.99,,2013-02-17 22:42:00,
2013-02-17 17:52:00,22.0,7.0,-100.00,West,275,4.0,9.0,52,0.00,,,-99.99,,2013-02-17 22:52:00,
2013-02-17 18:02:00,22.0,8.0,-100.00,WSW,245,4.0,9.0,52,0.00,,,-99.99,,2013-02-17 23:02:00,
2013-02-17 18:11:00,22.0,7.0,-100.00,WSW,255,5.0,9.0,52,0.00,,,-99.99,,2013-02-17 23:11:00,
2013-02-17 18:21:00,21.0,7.0,-100.00,West,280,2.0,6.0,54,0.00,,,-99.99,,2013-02-17 23:21:00,
2013-02-17 18:32:00,20.0,7.0,-100.00,West,265,2.0,6.0,56,0.00,,,-99.99,,2013-02-17 23:32:00,
2013-02-17 18:42:00,20.0,8.0,-100.00,WNW,290,1.0,4.0,58,0.00,,,-99.99,,2013-02-17 23:42:00,
2013-02-17 18:52:00,19.0,8.0,-100.00,SSW,195,0.0,0.0,60,0.00,,,-99.99,,2013-02-17 23:52:00,
2013-02-17 19:02:00,18.0,8.0,-100.00,SSW,195,0.0,0.0,64,0.00,,,-99.99,,2013-02-18 00:02:00,
2013-02-17 19:11:00,17.0,8.0,-100.00,SSW,195,0.0,0.0,65,0.00,,,-99.99,,2013-02-18 00:11:00,
2013-02-17 19:22:00,17.0,8.0,-100.00,ESE,120,0.0,1.0,65,0.00,,,-99.99,,2013-02-18 00:22:00,
2013-02-17 19:32:00,17.0,8.0,-100.00,ESE,110,1.0,1.0,68,0.00,,,-99.99,,2013-02-18 00:32:00,
2013-02-17 19:41:00,17.0,8.0,-100.00,ESE,105,0.0,2.0,69,0.00,,,-99.99,,2013-02-18 00:41:00,
2013-02-17 19:52:00,16.0,9.0,-100.00,ESE,105,0.0,0.0,72,0.00,,,-99.99,,2013-02-18 00:52:00,
2013-02-17 20:01:00,16.0,8.0,-100.00,ENE,75,0.0,1.0,68,0.00,,,-99.99,,2013-02-18 01:01:00,
2013-02-17 20:12:00,17.0,8.0,-100.00,East,90,0.0,1.0,67,0.00,,,-99.99,,2013-02-18 01:12:00,
2013-02-17 20:21:00,17.0,8.0,-100.00,East,95,1.0,2.0,66,0.00,,,-99.99,,2013-02-18 01:21:00,
2013-02-17 20:32:00,17.0,8.0,-100.00,ENE,75,1.0,1.0,67,0.00,,,-99.99,,2013-02-18 01:32:00,
2013-02-17 20:41:00,17.0,8.0,-100.00,East,80,1.0,3.0,67,0.00,,,-99.99,,2013-02-18 01:41:00,
2013-02-17 20:51:00,17.0,8.0,-100.00,ENE,70,1.0,1.0,67,0.00,,,-99.99,,2013-02-18 01:51:00,
2013-02-17 21:02:00,17.0,8.0,-100.00,East,80,1.0,3.0,67,0.00,,,-99.99,,2013-02-18 02:02:00,
2013-02-17 21:11:00,17.0,8.0,-100.00,East,90,0.0,2.0,68,0.00,,,-99.99,,2013-02-18 02:11:00,
2013-02-17 21:22:00,17.0,8.0,-100.00,East,90,0.0,2.0,68,0.00,,,-99.99,,2013-02-18 02:22:00,
2013-02-17 21:32:00,17.0,7.0,-100.00,East,85,1.0,2.0,65,0.00,,,-99.99,,2013-02-18 02:32:00,
2013-02-17 21:41:00,17.0,7.0,-100.00,East,85,2.0,3.0,64,0.00,,,-99.99,,2013-02-18 02:41:00,
2013-02-17 21:52:00,17.0,7.0,-100.00,East,80,2.0,3.0,64,0.00,,,-99.99,,2013-02-18 02:52:00,
2013-02-17 22:02:00,17.0,7.0,-100.00,ENE,70,2.0,3.0,65,0.00,,,-99.99,,2013-02-18 03:02:00,
2013-02-17 22:11:00,17.0,7.0,-100.00,ENE,75,2.0,4.0,65,0.00,,,-99.99,,2013-02-18 03:11:00,
2013-02-17 22:21:00,17.0,8.0,-100.00,ENE,75,3.0,5.0,66,0.00,,,-99.99,,2013-02-18 03:21:00,
2013-02-17 22:32:00,17.0,8.0,-100.00,ENE,75,3.0,5.0,66,0.00,,,-99.99,,2013-02-18 03:32:00,
2013-02-17 22:42:00,17.0,8.0,-100.00,East,85,3.0,6.0,67,0.00,,,-99.99,,2013-02-18 03:42:00,
2013-02-17 22:51:00,17.0,8.0,-100.00,East,85,4.0,6.0,68,0.00,,,-99.99,,2013-02-18 03:51:00,
2013-02-17 23:01:00,17.0,8.0,-100.00,East,90,4.0,7.0,67,0.00,,,-99.99,,2013-02-18 04:01:00,
2013-02-17 23:11:00,17.0,8.0,-100.00,East,100,4.0,6.0,67,0.00,,,-99.99,,2013-02-18 04:11:00,
2013-02-17 23:21:00,17.0,8.0,-100.00,East,95,4.0,7.0,66,0.00,,,-99.99,,2013-02-18 04:21:00,
2013-02-17 23:32:00,17.0,8.0,-100.00,East,95,4.0,7.0,66,0.00,,,-99.99,,2013-02-18 04:32:00,
2013-02-17 23:42:00,17.0,8.0,-100.00,East,95,3.0,6.0,66,0.00,,,-99.99,,2013-02-18 04:42:00,
2013-02-17 23:51:00,17.0,8.0,-100.00,ESE,105,6.0,7.0,65,0.00,,,-99.99,,2013-02-18 04:51:00,